Weather History for KRAP - May, 2013

Change the Weather History Date:

Sunday, May 5, 2013

  Actual Average Record
Temperature  
Mean Temperature 45 °F 52 °F  
Max Temperature 62 °F 65 °F 93 °F (2004)
Min Temperature 28 °F 38 °F 22 °F (1944)
Degree Days  
Heating Degree Days 20 14  
Month to date heating degree days 117 72  
Since 1 July heating degree days 6916 6801  
Cooling Degree Days 0 0  
Month to date cooling degree days 0 0  
Year to date cooling degree days 0 2  
Moisture  
Dew Point 20 °F    
Average Humidity 38    
Maximum Humidity 56    
Minimum Humidity 19    
Precipitation  
Precipitation 0.00 in 0.09 in 1.10 in (2007)
Month to date precipitation 0.00 0.46  
Year to date precipitation 4.46 3.93  
Snow  
Snow 0.00 in 0.10 in 0.10 in (1950)
Month to date snowfall 0.0 0.5  
Since 1 July snowfall 76.7 40.5  
Snow Depth 0.00 in    
Sea Level Pressure  
Sea Level Pressure 30.21 in    
Wind  
Wind Speed 6 mph (North)    
Max Wind Speed 15 mph    
Max Gust Speed 20 mph    
Visibility 10 miles    
Events      
T = Trace of Precipitation, MM = Missing Value Source: NWS Daily Summary

Daily Weather History Graph

Daily Weather History Graph

Search for Another Location

Airport or City:

Trip Planner

Search our weather history database for the weather conditions in past years. The results will help you decide how hot, cold, wet, or windy it might be!

Date:

Astronomy

May. 05, 2013 Rise Set
Actual Time 5:37 AM MDT 8:00 PM MDT
Civil Twilight 5:05 AM MDT 8:33 PM MDT
Nautical Twilight 4:25 AM MDT 9:13 PM MDT
Astronomical Twilight 3:40 AM MDT 9:58 PM MDT
Moon 3:18 AM MDT (5/5) 3:54 PM MDT (5/5)
Length of Visible Light 15h 27m
Length of Day
14h 22m
Waning Crescent, 17% of the Moon is Illuminated
May 5
Waning Crescent
May 9
New
May 17
First Quarter
May 24
Full
May 31
Last Quarter

Hourly Weather History & Observations

Time (MDT) Temp. Windchill Dew Point Humidity Pressure Visibility Wind Dir Wind Speed Gust Speed Precip Events Conditions
12:52 AM 30.9 °F - 16.0 °F 54% 30.31 in 10.0 mi Calm Calm - N/A   Clear
1:52 AM 35.1 °F 29.3 °F 16.0 °F 46% 30.28 in 10.0 mi NW 6.9 mph - N/A   Clear
2:52 AM 35.1 °F 28.6 °F 19.0 °F 52% 30.27 in 10.0 mi WNW 8.1 mph - N/A   Clear
3:52 AM 34.0 °F 26.6 °F 18.0 °F 52% 30.27 in 10.0 mi WNW 9.2 mph - N/A   Clear
4:52 AM 35.1 °F 26.9 °F 18.0 °F 50% 30.26 in 10.0 mi WNW 11.5 mph - N/A   Clear
5:52 AM 33.1 °F 26.1 °F 18.0 °F 54% 30.27 in 10.0 mi WNW 8.1 mph - N/A   Clear
6:52 AM 41.0 °F 35.8 °F 19.0 °F 41% 30.26 in 10.0 mi NNW 8.1 mph - N/A   Clear
7:52 AM 46.0 °F 40.6 °F 18.0 °F 33% 30.27 in 10.0 mi North 11.5 mph - N/A   Clear
8:52 AM 50.0 °F - 19.0 °F 29% 30.28 in 10.0 mi North 9.2 mph - N/A   Clear
9:52 AM 52.0 °F - 19.0 °F 27% 30.27 in 10.0 mi NNE 8.1 mph - N/A   Clear
10:52 AM 55.0 °F - 17.1 °F 23% 30.26 in 10.0 mi North 9.2 mph - N/A   Clear
11:52 AM 55.0 °F - 14.0 °F 20% 30.25 in 10.0 mi Calm Calm - N/A   Clear
12:52 PM 57.9 °F - 18.0 °F 21% 30.23 in 10.0 mi NNE 6.9 mph 16.1 mph N/A   Clear
1:52 PM 59.0 °F - 21.9 °F 24% 30.20 in 10.0 mi North 9.2 mph - N/A   Clear
2:52 PM 61.0 °F - 21.9 °F 22% 30.17 in 10.0 mi ENE 10.4 mph 16.1 mph N/A   Clear
3:52 PM 61.0 °F - 21.9 °F 22% 30.16 in 10.0 mi NNE 9.2 mph - N/A   Clear
4:52 PM 61.0 °F - 21.9 °F 22% 30.14 in 10.0 mi East 5.8 mph - N/A   Clear
5:52 PM 61.0 °F - 23.0 °F 23% 30.14 in 10.0 mi ENE 5.8 mph - N/A   Clear
6:52 PM 59.0 °F - 24.1 °F 26% 30.12 in 10.0 mi Variable 3.5 mph - N/A   Clear
7:52 PM 52.0 °F - 26.1 °F 37% 30.13 in 10.0 mi East 4.6 mph - N/A   Clear
8:52 PM 45.0 °F 41.8 °F 24.1 °F 44% 30.14 in 10.0 mi East 5.8 mph - N/A   Clear
9:52 PM 42.1 °F 40.2 °F 23.0 °F 47% 30.15 in 10.0 mi East 3.5 mph - N/A   Clear
10:52 PM 41.0 °F - 21.9 °F 47% 30.15 in 10.0 mi Calm Calm - N/A   Clear
11:52 PM 35.1 °F - 21.9 °F 59% 30.17 in 10.0 mi Calm Calm - N/A   Clear